Weather Roundup
Issued by NWS Corpus Christi, TX

Home | Current Version | Previous Version | Text Only | Print | Product List | Glossary On
Versions: 1 2 3 4 5 6 7 8 9 10 11 12 13 14 15 16 17 18 19 20 21 22 23 24 25 26 27 28 29 30 31 32 33 34 35 36 37 38 39 40 41 42 43 44 45 46 47 48 49 50
000
ASUS44 KCRP 240110
HRRCRP

SOUTH TEXAS REGIONAL WEATHER ROUNDUP
NATIONAL WEATHER SERVICE CORPUS CHRISTI TX
800 PM CDT TUE SEP 23 2014


TXZ229>244-240200-
...CORPUS CHRISTI AREA OBSERVATIONS...

CITY           SKY/WX    TMP DP  RH WIND       PRES   REMARKS
CORPUS CHRISTI PTCLDY    79  68  69 E12       30.00S
NAS CORPUS CHR PTCLDY    80  68  66 E16       30.00R
ROCKPORT       CLEAR     79  69  71 E14       30.00S
KINGSVILLE NAS PTCLDY    72  69  90 E9        30.00R
ALICE          CLEAR     79  63  57 E8        30.00R
FALFURRIAS     CLEAR    N/A N/A N/A E6        29.99S
$$

...VICTORIA AREA OBSERVATIONS...

CITY           SKY/WX    TMP DP  RH WIND       PRES   REMARKS
VICTORIA       CLEAR     74  63  68 NE8       30.03R
BEEVILLE       FAIR      81  55  40 MISG      30.01R
PLEASANTON     PTCLDY    82  51  33 NE6       30.02S
SAN ANTONIO    MOCLDY    82  54  37 E9        30.04S
$$

...LAREDO AREA OBSERVATIONS...

CITY           SKY/WX    TMP DP  RH WIND       PRES   REMARKS
LAREDO         PTCLDY    82  72  72 S14       30.02R
COTULLA        PTCLDY    86  60  41 E8        29.99R
DEL RIO        PTCLDY    85  66  53 E8        29.99R
MCALLEN        PTCLDY    80  74  81 E6        29.99R
HEBBRONVILLE   PTCLDY    78  72  79 SE6       30.02R
$$

...OTHER TEXAS OBSERVATIONS...

CITY           SKY/WX    TMP DP  RH WIND       PRES   REMARKS
BROWNSVILLE    CLOUDY    80  73  79 NE7       29.97R
HOUSTON        MOCLDY    75  58  55 NE7       30.05R
COL. STATION   MOCLDY    76  55  48 NE7       30.06S
AUSTIN         MOCLDY    75  58  55 E3        30.06R
WACO           MOCLDY    75  51  43 E6        30.06S
FORT WORTH     PTCLDY    77  46  33 E7        30.07S
WICHITA FALLS  CLEAR     78  54  43 SE12      30.05S
LUBBOCK        MOCLDY    74  61  63 SW8       30.10S
EL PASO        PTCLDY    79  58  48 SE7       30.08S
$$

...MARINE OBSERVATIONS...

STATION/POSITION TIME  SKY/WX   TEMP    WIND        PRES    VSBY  WAVE   SWELL
                                AIR SEA DIR/SP/G                  HT/PER HT/PER
                 (UTC)          (F)     (DEG/KT/KT) (MB)    (MI)  (FT/S) (FT/S)
PORT ARANSAS     0100            80 84   50/ 15/ 18 1016.5F
BUOY 90 E PORT A 0100            81 84   30/ 16/ 19 1015.9R         4/ 6
BUOY 45 SE BAFFI 0100            82 84   50/ 16/ 17 1014.4S         5/ 6
BUOY 200 E PT IS 0100            84 85   60/ 19/ 23 1013.7R         5/ 7
BUOY 15 E GALVES 0100            81 83   50/ 14/ 17 1016.2R         3/ 7   2/ 7
$$



USA.gov is the U.S. government's official web portal to all federal, state and local government web resources and services.